This demonstration page uses our WeatherBlox Daily Observations layout. Learn more.

Left ArrowRight Arrow

Hourly Observations for August 8, 2022

Temp ( °F °C ) Dew Point ( °F °C ) Humidity (%) Winds ( mph kmh ) Pressure ( in mb ) Visibility ( mi km ) Precip ( " mm )
12:01 am 00:01 Cloudy with Strong Thunderstorms 70 21.1 69 20.6 97 97 W 20 31 30.03 1017 1 2 0.00 0.00
12:04 am 00:04 Cloudy with Strong Thunderstorms 70 21.1 69 20.6 97 97 WNW 16 26 30.01 1016 1 1 0.00 0.00
12:19 am 00:19 Cloudy with Strong Thunderstorms 69 20.6 69 20.6 100 100 N 20 31 29.96 1015 1 2 0.62 15.75
12:28 am 00:28 Cloudy with Thunderstorms 69 20.6 69 20.6 100 100 NNW 16 26 29.97 1015 7 11 0.72 18.29
12:44 am 00:44 Cloudy with Thunderstorms 69 20.6 69 20.6 100 100 NNW 15 24 29.98 1015 7 11 0.72 18.29
12:52 am 00:52 Cloudy with Thunderstorms 70 21 70 21 100 100 NNW 14 22 29.99 1016 7 11 0.72 18.29
1:52 am 01:52 Cloudy with Light Rain 69 20.6 69 20.6 100 100 NNW 17 28 29.97 1015 7 11 0.03 0.76
2:52 am 02:52 Cloudy 68 20 67 19.4 96 96 NNW 18 30 29.97 1015 10 16 0.00 0.00
3:52 am 03:52 Cloudy 68 20 66 18.9 93 93 NNW 15 24 29.99 1016 10 16 0.00 0.00
4:13 am 04:13 Cloudy 68 20 66 18.9 93 93 NNW 13 20 30.00 1016 10 16 0.00 0.00
4:52 am 04:52 Cloudy 67 19.4 65 18.3 93 93 NNW 12 19 30.03 1017 10 16 0.00 0.00
5:52 am 05:52 Cloudy 67 19.4 64 17.8 91 91 NNW 14 22 30.03 1017 10 16 0.00 0.00
6:52 am 06:52 Cloudy 66 18.9 62 16.7 87 87 N 18 30 30.06 1018 10 16 0.00 0.00
7:52 am 07:52 Cloudy 65 18.3 61 16.1 87 87 NNW 14 22 30.07 1018 10 16 0.00 0.00
8:52 am 08:52 Mostly Cloudy 67 19.4 60 15.6 79 79 NNE 14 22 30.08 1019 10 16 0.00 0.00
9:52 am 09:52 Partly Cloudy 71 21.7 61 16.1 71 71 NNW 10 17 30.09 1019 10 16 0.00 0.00
10:52 am 10:52 Partly Cloudy 72 22.2 59 15 64 64 NNW 7 11 30.10 1019 10 16 0.00 0.00
11:52 am 11:52 Partly Cloudy 75 23.9 59 15 57 57 NNW 8 13 30.11 1020 10 16 0.00 0.00
12:52 pm 12:52 Partly Cloudy 77 25 57 13.9 50 50 NNE 10 17 30.10 1019 10 16 0.00 0.00
1:52 pm 13:52 Partly Cloudy 79 26.1 57 13.9 47 47 NNE 10 17 30.09 1019 10 16 0.00 0.00
2:52 pm 14:52 Mostly Sunny 80 26.7 57 13.9 45 45 NNE 12 19 30.08 1019 10 16 0.00 0.00
3:52 pm 15:52 Mostly Sunny 80 26.7 58 14.4 47 47 NE 7 11 30.06 1018 10 16 0.00 0.00
4:52 pm 16:52 Mostly Sunny 82 27.8 59 15 46 46 VRB 7 11 30.03 1017 10 16 0.00 0.00
5:52 pm 17:52 Mostly Sunny 81 27.2 59 15 47 47 N 12 19 30.02 1017 10 16 0.00 0.00
6:52 pm 18:52 Sunny 79 26.1 59 15 50 50 NNE 9 15 30.02 1017 10 16 0.00 0.00
7:52 pm 19:52 Sunny 77 25 61 16.1 58 58 NNE 10 17 30.03 1017 10 16 0.00 0.00
8:52 pm 20:52 Clear 73 22.8 60 15.6 64 64 NE 6 9 30.05 1018 10 16 0.00 0.00
9:52 pm 21:52 Clear 68 20 61 16.1 78 78 N 5 7 30.07 1018 10 16 0.00 0.00
10:52 pm 22:52 Clear 64 17.8 62 16.7 93 93 NNW 5 7 30.09 1019 10 16 0.00 0.00
11:52 pm 23:52 Clear 64 17.8 61 16.1 90 90 N 3 6 30.09 1019 10 16 0.00 0.00

Powered by AerisWeather